This demonstration page uses our WeatherBlox Daily Observations layout. Learn more.

Left ArrowRight Arrow

39.01783, -85.05884

Hourly Observations for July 11, 2021

Temp ( °F °C ) Dew Point ( °F °C ) Humidity (%) Winds ( mph kmh ) Pressure ( in mb ) Visibility ( mi km ) Precip ( " mm )
2:52 am 02:52 Mostly Cloudy 71 21.7 67 19.4 87 87 S 14 22 29.82 1010 10 16 0.01 0.25
3:52 am 03:52 Cloudy 70 21.1 66 18.9 87 87 S 14 22 29.82 1010 10 16 0.00 0.00
4:52 am 04:52 Cloudy 69 20.6 65 18.3 87 87 S 8 13 29.81 1010 10 16 0.00 0.00
5:52 am 05:52 Cloudy 69 20.6 65 18.3 87 87 SSW 9 15 29.82 1010 10 16 0.00 0.00
6:10 am 06:10 Cloudy with Light Rain 69 20.6 65 18.3 87 87 S 7 11 29.83 1010 10 16 0.00 0.00
6:27 am 06:27 Cloudy with Rain 69 20.6 66 18.9 90 90 S 8 13 29.82 1010 7 11 0.01 0.25
6:52 am 06:52 Cloudy with Light Rain 69 20.6 66 18.9 90 90 S 5 7 29.81 1010 10 16 0.02 0.51
7:52 am 07:52 Cloudy 69 20.6 67 19.4 93 93 WSW 3 6 29.84 1010 10 16 0.03 0.76
8:13 am 08:13 Cloudy with Heavy Rain 69 20.6 67 19.4 93 93 S 6 9 29.85 1011 1 2 0.00 0.00
8:30 am 08:30 Cloudy with Heavy Rain 69 20.6 67 19.4 93 93 S 7 11 29.85 1011 2 3 0.19 4.83
8:52 am 08:52 Cloudy with Heavy Rain 69 20.6 67 19.4 93 93 S 8 13 29.84 1011 2 3 0.29 7.37
9:04 am 09:04 Cloudy with Light Rain 69 20.6 67 19.4 93 93 SSW 7 11 29.85 1011 4 6 0.11 2.79
9:30 am 09:30 Cloudy with Light Rain 70 21.1 67 19.4 90 90 SSW 5 7 29.85 1011 3 4 0.11 2.79
9:45 am 09:45 Cloudy with Light Rain 70 21.1 67 19.4 90 90 Calm 29.86 1011 1 2 0.11 2.79
9:52 am 09:52 Cloudy with Light Rain 70 21.1 68 20 93 93 S 6 9 29.86 1011 1 2 0.12 3.05
10:32 am 10:32 Cloudy with Mist and Fog 71 21.7 68 20 90 90 SSW 9 15 29.87 1012 3 4 0.00 0.00
10:52 am 10:52 Cloudy 72 22.2 69 20.6 91 91 WSW 6 9 29.88 1012 3 4 0.00 0.00
11:00 am 11:00 Cloudy 73 22.8 69 20.6 87 87 SSW 7 11 29.88 1012 10 16 0.00 0.00
11:52 am 11:52 Cloudy 74 23.3 69 20.6 85 85 SSW 8 13 29.88 1012 10 16 0.00 0.00
11:59 am 11:59 Mostly Cloudy 75 23.9 69 20.6 82 82 SSW 6 9 29.88 1012 10 16 0.00 0.00
12:52 pm 12:52 Cloudy 75 23.9 69 20.6 82 82 S 9 15 29.89 1012 10 16 0.00 0.00
1:52 pm 13:52 Cloudy 77 25 68 20 74 74 SW 7 11 29.90 1012 10 16 0.00 0.00
2:52 pm 14:52 Mostly Cloudy 77 25 68 20 74 74 SW 9 15 29.90 1012 10 16 0.00 0.00
2:57 pm 14:57 Cloudy 77 25 68 20 74 74 SW 8 13 29.89 1012 10 16 0.00 0.00
3:52 pm 15:52 Mostly Cloudy 79 26.1 68 20 69 69 WSW 9 15 29.89 1012 10 16 0.00 0.00
4:52 pm 16:52 Mostly Cloudy 79 26.1 69 20.6 72 72 SW 10 17 29.88 1012 10 16 0.00 0.00
5:52 pm 17:52 Mostly Cloudy 79 26.1 68 20 69 69 W 8 13 29.88 1012 10 16 0.00 0.00
6:52 pm 18:52 Mostly Cloudy 80 26.7 68 20 67 67 VRB 5 7 29.88 1012 10 16 0.00 0.00
7:52 pm 19:52 Mostly Cloudy 79 26.1 68 20 69 69 Calm 29.89 1012 10 16 0.00 0.00
8:52 pm 20:52 Mostly Cloudy 78 25.6 68 20 71 71 NNW 3 6 29.90 1013 10 16 0.00 0.00
9:52 pm 21:52 Mostly Cloudy 77 25 68 20 74 74 N 3 6 29.91 1013 10 16 0.00 0.00
10:52 pm 22:52 Cloudy 75 23.9 68 20 79 79 S 3 6 29.93 1014 10 16 0.00 0.00
11:21 pm 23:21 Cloudy 75 23.9 67 19.4 76 76 SSW 6 9 29.94 1014 10 16 0.00 0.00
11:52 pm 23:52 Cloudy 74 23.3 68 20 82 82 SSW 6 9 29.94 1014 10 16 0.00 0.00

Powered by AerisWeather